Date String (YYYY-MM-DD hh:mm:ss) UTC,Instrument flags,Ambient pressure (hPa),Sample flow (lpm),Bypass flow (lpm),Sample temperature (°C),Ambient temperature (°C),ASC tube jacket temperature (°C),LED temperature (°C),Box temperature (°C),Sample RH (%),Span deviation,Mass concentration (μg/m³),Mass concentration (μg/m³),Mass concentration (μg/m³)
DateTimeUTC,F1_M11,P_M11,Q1_M11,Q2_M11,T1_M11,T2_M11,T3_M11,T4_M11,T5_M11,U1_M11,ZSPAN_M11,X0_M11,X2_M11,X1_M11
2023-04-09 10:00:00,,0833.1,5.02,0.00,24.2,22.6,00.0,32.5,25.8,15.1,0000.0,0008.69,0003.43,0002.00
2023-04-09 10:01:00,,0833.1,5.00,0.00,24.2,22.6,00.0,32.5,25.8,15.1,0000.0,0008.93,0003.47,0001.99
2023-04-09 10:02:00,,0833.1,5.00,0.00,24.2,22.6,00.0,32.5,25.8,15.1,0000.0,0009.40,0003.48,0001.98
2023-04-09 10:03:00,,0833.2,4.99,0.00,24.2,22.6,00.0,32.5,25.8,15.1,0000.0,0009.84,0003.48,0001.99
2023-04-09 10:04:00,,0833.2,5.01,0.00,24.2,22.6,00.0,32.5,25.8,15.1,0000.0,0010.20,0003.49,0002.01
2023-04-09 10:05:00,,0833.2,5.00,0.00,24.2,22.6,00.0,32.5,25.8,15.1,0000.0,0010.05,0003.48,0002.02
2023-04-09 10:06:00,,0833.2,4.99,0.00,24.2,22.5,00.0,32.5,25.7,15.2,0000.0,0010.56,0003.44,0002.02
2023-04-09 10:07:00,,0833.3,5.00,0.00,24.2,22.6,00.0,32.5,25.8,15.2,0000.0,0010.75,0003.45,0002.03
2023-04-09 10:08:00,,0833.2,5.01,0.00,24.2,22.5,00.0,32.5,25.8,15.2,0000.0,0011.11,0003.45,0002.04
2023-04-09 10:09:00,,0833.2,5.00,0.00,24.2,22.5,00.0,32.5,25.7,15.2,0000.0,0010.66,0003.49,0002.04
2023-04-09 10:10:00,,0833.3,5.00,0.00,24.2,22.5,00.0,32.5,25.7,15.2,0000.0,0011.47,0003.47,0002.02
2023-04-09 10:11:00,,0833.3,4.99,0.00,24.2,22.5,00.0,32.5,25.7,15.2,0000.0,0011.53,0003.46,0002.00
2023-04-09 10:12:00,,0833.3,5.00,0.00,24.2,22.5,00.0,32.5,25.7,15.2,0000.0,0011.33,0003.42,0001.98
2023-04-09 10:13:00,,0833.3,5.00,0.00,24.2,22.5,00.0,32.5,25.7,15.2,0000.0,0010.69,0003.35,0001.95
2023-04-09 10:14:00,,0833.2,5.00,0.00,24.2,22.5,00.0,32.5,25.7,15.3,0000.0,0010.34,0003.36,0001.93
2023-04-09 10:15:00,,0833.2,5.01,0.00,24.2,22.5,00.0,32.5,25.7,15.2,0000.0,0010.55,0003.38,0001.92
2023-04-09 10:16:00,,0833.3,5.00,0.00,24.2,22.4,00.0,32.5,25.7,15.2,0000.0,0010.77,0003.42,0001.93
2023-04-09 10:17:00,,0833.3,5.00,0.00,24.2,22.4,00.0,32.5,25.7,15.2,0000.0,0010.21,0003.46,0001.93
2023-04-09 10:18:00,,0833.3,4.99,0.00,24.2,22.4,00.0,32.5,25.7,15.3,0000.0,0010.45,0003.47,0001.93
2023-04-09 10:19:00,,0833.4,5.01,0.00,24.2,22.4,00.0,32.5,25.6,15.3,0000.0,0010.37,0003.47,0001.92
2023-04-09 10:20:00,,0833.4,5.00,0.00,24.1,22.4,00.0,32.5,25.6,15.2,0000.0,0010.26,0003.46,0001.92
2023-04-09 10:21:00,,0833.4,5.00,0.00,24.1,22.4,00.0,32.4,25.6,15.2,0000.0,0009.30,0003.44,0001.93
2023-04-09 10:22:00,,0833.4,5.00,0.00,24.1,22.4,00.0,32.4,25.6,15.2,0000.0,0009.09,0003.44,0001.96
2023-04-09 10:23:00,,0833.4,5.00,0.00,24.1,22.4,00.0,32.4,25.6,15.2,0000.0,0009.26,0003.46,0001.98
2023-04-09 10:24:00,,0833.4,5.00,0.00,24.1,22.4,00.0,32.4,25.6,15.2,0000.0,0009.34,0003.49,0002.00
2023-04-09 10:25:00,,0833.4,5.00,0.00,24.1,22.4,00.0,32.4,25.7,15.2,0000.0,0009.46,0003.48,0002.00
2023-04-09 10:26:00,,0833.4,5.01,0.00,24.1,22.4,00.0,32.4,25.6,15.2,0000.0,0009.36,0003.45,0001.99
2023-04-09 10:27:00,,0833.4,5.01,0.00,24.1,22.4,00.0,32.4,25.6,15.2,0000.0,0009.56,0003.47,0001.99
2023-04-09 10:28:00,,0833.4,5.00,0.00,24.1,22.4,00.0,32.4,25.6,15.2,0000.0,0009.57,0003.43,0001.98
2023-04-09 10:29:00,,0833.4,4.99,0.00,24.1,22.4,00.0,32.4,25.6,15.2,0000.0,0009.41,0003.43,0001.98
2023-04-09 10:30:00,,0833.4,5.00,0.00,24.1,22.4,00.0,32.4,25.6,15.2,0000.0,0009.09,0003.45,0001.99
2023-04-09 10:31:00,,0833.4,5.01,0.00,24.1,22.4,00.0,32.4,25.6,15.2,0000.0,0008.77,0003.38,0001.98
2023-04-09 10:32:00,,0833.4,5.00,0.00,24.1,22.4,00.0,32.4,25.6,15.1,0000.0,0008.77,0003.34,0001.96
2023-04-09 10:33:00,,0833.4,5.00,0.00,24.1,22.4,00.0,32.4,25.6,15.1,0000.0,0008.67,0003.27,0001.93
2023-04-09 10:34:00,,0833.4,4.99,0.00,24.1,22.4,00.0,32.4,25.6,15.1,0000.0,0008.39,0003.21,0001.91
2023-04-09 10:35:00,,0833.4,4.99,0.00,24.1,22.4,00.0,32.4,25.6,15.1,0000.0,0008.30,0003.20,0001.91
2023-04-09 10:36:00,,0833.4,5.00,0.00,24.1,22.4,00.0,32.4,25.6,15.1,0000.0,0008.19,0003.20,0001.90
2023-04-09 10:37:00,,0833.4,5.01,0.00,24.1,22.4,00.0,32.4,25.6,15.1,0000.0,0007.97,0003.19,0001.90
2023-04-09 10:38:00,,0833.4,5.01,0.00,24.1,22.4,00.0,32.4,25.6,15.1,0000.0,0007.83,0003.16,0001.89
2023-04-09 10:39:00,,0833.4,4.99,0.00,24.1,22.4,00.0,32.4,25.6,15.1,0000.0,0008.03,0003.13,0001.87
2023-04-09 10:40:00,,0833.4,4.99,0.00,24.1,22.4,00.0,32.4,25.6,15.0,0000.0,0007.99,0003.07,0001.86
2023-04-09 10:41:00,,0833.4,5.00,0.00,24.1,22.4,00.0,32.4,25.6,14.9,0000.0,0007.79,0002.97,0001.85
2023-04-09 10:42:00,,0833.5,5.01,0.00,24.1,22.4,00.0,32.4,25.6,15.0,0000.0,0007.78,0002.96,0001.84
2023-04-09 10:43:00,,0833.5,5.00,0.00,24.1,22.4,00.0,32.4,25.6,15.0,0000.0,0007.81,0003.01,0001.84
2023-04-09 10:44:00,,0833.5,5.00,0.00,24.1,22.4,00.0,32.4,25.6,15.0,0000.0,0007.92,0003.05,0001.84
2023-04-09 10:45:00,,0833.4,4.99,0.00,24.1,22.4,00.0,32.4,25.6,15.0,0000.0,0008.11,0003.13,0001.85
2023-04-09 10:46:00,,0833.5,5.01,0.00,24.1,22.4,00.0,32.4,25.6,15.1,0000.0,0008.29,0003.17,0001.84
2023-04-09 10:47:00,,0833.5,5.01,0.00,24.1,22.4,00.0,32.4,25.6,15.1,0000.0,0008.26,0003.13,0001.84
2023-04-09 10:48:00,,0833.5,5.00,0.00,24.1,22.4,00.0,32.4,25.6,15.0,0000.0,0008.31,0003.19,0001.85
2023-04-09 10:49:00,,0833.5,5.00,0.00,24.1,22.4,00.0,32.4,25.6,15.0,0000.0,0008.38,0003.20,0001.86
2023-04-09 10:50:00,,0833.5,5.00,0.00,24.1,22.4,00.0,32.4,25.6,15.0,0000.0,0007.99,0003.17,0001.85
2023-04-09 10:51:00,,0833.6,5.00,0.00,24.1,22.4,00.0,32.4,25.6,15.1,0000.0,0007.74,0003.19,0001.86
2023-04-09 10:52:00,,0833.6,5.00,0.00,24.1,22.4,00.0,32.4,25.6,15.2,0000.0,0007.86,0003.22,0001.87
2023-04-09 10:53:00,,0833.6,5.01,0.00,24.1,22.4,00.0,32.4,25.6,15.2,0000.0,0008.06,0003.28,0001.88
2023-04-09 10:54:00,,0833.6,5.00,0.00,24.1,22.4,00.0,32.4,25.6,15.1,0000.0,0009.09,0003.32,0001.90
2023-04-09 10:55:00,,0833.5,4.98,0.00,24.1,22.3,00.0,32.4,25.6,15.2,0000.0,0009.28,0003.39,0001.92
2023-04-09 10:56:00,,0833.5,5.00,0.00,24.1,22.3,00.0,32.4,25.5,15.2,0000.0,0009.30,0003.40,0001.93
2023-04-09 10:57:00,,0833.5,5.02,0.00,24.0,22.3,00.0,32.4,25.5,15.2,0000.0,0009.30,0003.45,0001.95
2023-04-09 10:58:00,,0833.5,4.99,0.00,24.0,22.3,00.0,32.4,25.5,15.3,0000.0,0009.22,0003.47,0001.96
2023-04-09 10:59:00,,0833.4,4.99,0.00,24.0,22.3,00.0,32.3,25.5,15.3,0000.0,0008.99,0003.41,0001.97
